KB0RPJ Weather Reports


time (UTC)temp
C
wind
direction
speed
KPH
gust
KPH
rain 1hr
cm
rain 24hr
cm
rain mn
cm
humidity
%
barometer
mb
20260504205008 28 151 4.8 9.7 0.00 0.08 0.08 42 999.5
20260504204504 27 182 8.0 11.3 0.00 0.08 0.08 42 999.6
20260504204005 27 193 8.0 14.5 0.00 0.08 0.08 43 999.7
20260504203504 27 185 12.9 16.1 0.00 0.08 0.08 42 999.8
20260504203005 27 201 9.7 14.5 0.00 0.08 0.08 38 999.8
20260504202505 27 197 9.7 14.5 0.00 0.08 0.08 42 999.8
20260504202005 27 184 8.0 11.3 0.00 0.08 0.08 43 999.8
20260504201504 27 175 6.4 11.3 0.00 0.08 0.08 42 999.8
20260504201005 27 169 14.5 22.5 0.00 0.08 0.08 43 999.9
20260504200505 27 208 11.3 19.3 0.00 0.08 0.08 42 999.9
20260504200005 27 156 8.0 12.9 0.00 0.08 0.08 44 1000.0
20260504195504 27 163 8.0 12.9 0.00 0.08 0.08 42 1000.0
20260504195005 26 174 8.0 16.1 0.00 0.08 0.08 42 1000.1
20260504194519 26 235 4.8 16.1 0.00 0.08 0.08 43 1000.1
20260504194006 26 159 8.0 14.5 0.00 0.08 0.08 43 1000.2
20260504193505 26 189 14.5 19.3 0.00 0.08 0.08 44 1000.1
20260504193017 26 213 11.3 12.9 0.00 0.08 0.08 43 1000.1
20260504192504 26 137 8.0 11.3 0.00 0.08 0.08 43 1000.2
20260504192005 26 233 6.4 14.5 0.00 0.08 0.08 43 1000.3
20260504191506 26 216 6.4 16.1 0.00 0.08 0.08 47 1000.3
20260504191005 26 205 9.7 16.1 0.00 0.08 0.08 42 1000.3
20260504190520 26 218 6.4 14.5 0.00 0.08 0.08 45 1000.3
20260504190005 26 222 4.8 16.1 0.00 0.08 0.08 44 1000.3
20260504185505 26 234 8.0 16.1 0.00 0.08 0.08 47 1000.4
20260504185008 26 195 11.3 16.1 0.00 0.08 0.08 44 1000.5
20260504184506 26 219 9.7 16.1 0.00 0.08 0.08 45 1000.4
20260504184009 26 150 4.8 12.9 0.00 0.08 0.08 44 1000.5
20260504183505 25 230 3.2 12.9 0.00 0.08 0.08 47 1000.6
20260504183005 25 202 3.2 20.9 0.00 0.08 0.08 47 1000.6
20260504182505 25 228 16.1 20.9 0.00 0.08 0.08 45 1000.6
20260504182005 25 151 9.7 12.9 0.00 0.08 0.08 45 1000.6
20260504181505 25 209 9.7 12.9 0.00 0.08 0.08 48 1000.7
20260504181005 25 201 4.8 9.7 0.00 0.08 0.08 50 1000.7
20260504180505 25 241 9.7 19.3 0.00 0.08 0.08 47 1000.7
20260504180005 25 188 9.7 14.5 0.00 0.08 0.08 48 1000.7
20260504175505 24 160 6.4 11.3 0.00 0.08 0.08 48 1000.8
20260504175005 24 200 9.7 14.5 0.00 0.08 0.08 48 1000.9
20260504174504 24 220 11.3 19.3 0.00 0.08 0.08 49 1000.9
20260504174005 24 216 9.7 20.9 0.00 0.08 0.08 46 1001.0
20260504173505 24 194 11.3 12.9 0.00 0.08 0.08 48 1001.0
20260504173024 24 224 8.0 11.3 0.00 0.08 0.08 49 1001.0
20260504172505 24 167 11.3 16.1 0.00 0.08 0.08 49 1001.0
20260504172006 24 166 11.3 12.9 0.00 0.08 0.08 48 1001.0
20260504171518 23 232 8.0 14.5 0.00 0.08 0.08 48 1001.1
20260504171005 23 202 9.7 14.5 0.00 0.08 0.08 49 1001.2
20260504170509 23 242 4.8 11.3 0.00 0.08 0.08 49 1001.3
20260504151005 20 184 11.3 12.9 0.00 0.08 0.08 55 1001.5
20260504150505 20 232 6.4 20.9 0.00 0.08 0.08 56 1001.5
20260504141005 18 158 11.3 12.9 0.00 0.08 0.08 60 1002.0
20260504140504 18 190 8.0 11.3 0.00 0.08 0.08 60 1002.0
20260504130505 16 163 8.0 9.7 0.00 0.08 0.08 71 1002.3
20260504110506 12 144 3.2 3.2 0.00 0.08 0.08 83 1002.3
20260504100505 12 132 1.6 1.6 0.00 0.08 0.08 78 1003.1
20260504082005 13 164 0.0 0.0 0.00 0.08 0.08 82 1004.5
20260504081505 13 164 0.0 0.0 0.00 0.08 0.08 82 1004.4
20260504081005 13 164 0.0 0.0 0.00 0.08 0.08 81 1004.6
20260504080505 13 164 0.0 0.0 0.00 0.08 0.08 80 1004.6
20260504050505 15 210 0.0 3.2 0.00 0.00 0.00 65 1006.8
20260504050015 15 210 0.0 0.0 0.00 0.00 0.00 65 1006.7
20260504045505 15 210 0.0 0.0 0.00 0.00 0.00 65 1006.7
20260504045008 15 210 0.0 0.0 0.00 0.00 0.00 65 1006.8
20260504044505 15 210 0.0 0.0 0.00 0.00 0.00 65 1006.9
20260504044005 15 210 0.0 1.6 0.00 0.00 0.00 65 1007.0
20260504043504 15 210 1.6 3.2 0.00 0.00 0.00 65 1007.1
20260504043005 15 217 3.2 3.2 0.00 0.00 0.00 65 1007.3
20260504042505 15 134 1.6 1.6 0.00 0.00 0.00 65 1007.3
20260504042005 15 134 0.0 0.0 0.00 0.00 0.00 65 1007.2
20260504041504 15 134 0.0 0.0 0.00 0.00 0.00 64 1007.2
20260504041005 15 134 0.0 0.0 0.00 0.00 0.00 64 1007.3
20260504040505 15 134 0.0 0.0 0.00 0.00 0.00 63 1007.2
20260504040005 15 134 0.0 0.0 0.00 0.00 0.00 62 1007.3
20260504035504 16 135 0.0 0.0 0.00 0.00 0.00 62 1007.4
20260504035005 16 134 0.0 0.0 0.00 0.00 0.00 60 1007.4
20260504034505 16 135 0.0 0.0 0.00 0.00 0.00 60 1007.4
20260504034007 16 134 0.0 0.0 0.00 0.00 0.00 58 1007.4
20260504033505 16 134 0.0 0.0 0.00 0.00 0.00 56 1007.5
20260504033008 16 134 0.0 0.0 0.00 0.00 0.00 57 1007.4
20260504032505 16 135 1.6 3.2 0.00 0.00 0.00 56 1007.5
20260504032005 16 112 0.0 3.2 0.00 0.00 0.00 53 1007.5
20260504031504 17 13 0.0 0.0 0.00 0.00 0.00 51 1007.4
20260504031021 17 13 0.0 0.0 0.00 0.00 0.00 51 1007.5
20260504030505 17 13 0.0 0.0 0.00 0.00 0.00 52 1007.5
20260504030009 17 13 0.0 0.0 0.00 0.00 0.00 51 1007.4
20260504025505 17 13 0.0 0.0 0.00 0.00 0.00 51 1007.4
20260504025008 17 13 0.0 0.0 0.00 0.00 0.00 52 1007.4
20260504024505 17 13 0.0 0.0 0.00 0.00 0.00 51 1007.4
20260504024005 17 13 0.0 0.0 0.00 0.00 0.00 51 1007.4
20260504023504 17 13 0.0 0.0 0.00 0.00 0.00 51 1007.3
20260504023005 17 13 0.0 0.0 0.00 0.00 0.00 50 1007.4
20260504022504 17 13 0.0 0.0 0.00 0.00 0.00 50 1007.4
20260504022005 18 13 0.0 0.0 0.00 0.00 0.00 49 1007.4
20260504021504 18 13 0.0 0.0 0.00 0.00 0.00 48 1007.5
20260504021004 18 13 0.0 0.0 0.00 0.00 0.00 48 1007.5
20260504020505 18 13 0.0 0.0 0.00 0.00 0.00 49 1007.5
20260504020004 18 13 0.0 0.0 0.00 0.00 0.00 48 1007.5
20260504015505 18 13 0.0 0.0 0.00 0.00 0.00 48 1007.5
20260504015005 19 13 0.0 0.0 0.00 0.00 0.00 47 1007.5
20260504014504 19 13 0.0 0.0 0.00 0.00 0.00 46 1007.5
20260504014006 19 13 0.0 0.0 0.00 0.00 0.00 47 1007.4
20260504013507 20 13 0.0 0.0 0.00 0.00 0.00 46 1007.5
20260504013005 20 13 0.0 0.0 0.00 0.00 0.00 45 1007.6
20260504012505 20 13 0.0 0.0 0.00 0.00 0.00 44 1007.6
20260504012006 20 13 0.0 0.0 0.00 0.00 0.00 44 1007.7
20260504011519 21 13 0.0 0.0 0.00 0.00 0.00 44 1007.7
20260504011006 21 13 0.0 0.0 0.00 0.00 0.00 43 1007.6
20260504010507 21 13 0.0 0.0 0.00 0.00 0.00 43 1007.6
20260504010016 21 13 0.0 0.0 0.00 0.00 0.00 42 1007.6
20260504005506 21 13 0.0 0.0 0.00 0.00 0.00 41 1007.5
20260504005008 21 13 0.0 0.0 0.00 0.00 0.00 40 1007.5
20260504004505 21 13 0.0 0.0 0.00 0.00 0.00 41 1007.6
20260504004005 22 13 0.0 0.0 0.00 0.00 0.00 38 1007.6
20260504003505 22 13 0.0 0.0 0.00 0.00 0.00 39 1007.6
20260504003005 22 13 0.0 1.6 0.00 0.00 0.00 38 1007.6
20260504002504 22 13 3.2 3.2 0.00 0.00 0.00 37 1007.7
20260504002005 22 344 3.2 3.2 0.00 0.00 0.00 37 1007.8
20260504001504 22 14 3.2 4.8 0.00 0.00 0.00 36 1007.8
20260504001005 22 6 3.2 4.8 0.00 0.00 0.00 36 1007.8
20260504000505 23 336 3.2 4.8 0.00 0.00 0.00 35 1007.9
20260504000005 23 300 4.8 4.8 0.00 0.00 0.00 35 1007.9
20260503235504 23 325 3.2 4.8 0.00 0.00 0.00 37 1008.0
20260503235011 23 312 3.2 3.2 0.00 0.00 0.00 35 1008.0
20260503234505 23 312 3.2 9.7 0.00 0.00 0.00 35 1008.0
20260503234006 23 316 8.0 9.7 0.00 0.00 0.00 34 1008.2
20260503233506 23 302 3.2 8.0 0.00 0.00 0.00 34 1008.1
20260503233005 23 287 3.2 8.0 0.00 0.00 0.00 34 1008.1
20260503232521 23 299 3.2 8.0 0.00 0.00 0.00 33 1008.1
20260503232005 23 248 8.0 9.7 0.00 0.00 0.00 34 1008.0
20260503231504 23 298 3.2 3.2 0.00 0.00 0.00 33 1008.1
20260503231006 24 237 4.8 4.8 0.00 0.00 0.00 34 1008.2
20260503230505 24 307 4.8 8.0 0.00 0.00 0.00 34 1008.2
20260503230016 24 225 4.8 8.0 0.00 0.00 0.00 34 1008.2
20260503225504 24 223 9.7 9.7 0.00 0.00 0.00 34 1008.2
20260503225007 24 230 8.0 9.7 0.00 0.00 0.00 35 1008.2
20260503224504 24 291 8.0 9.7 0.00 0.00 0.00 32 1008.2
20260503224005 24 311 4.8 11.3 0.00 0.00 0.00 33 1008.3
20260503223505 24 291 8.0 14.5 0.00 0.00 0.00 33 1008.2
20260503223005 24 312 4.8 14.5 0.00 0.00 0.00 34 1008.3
20260503222504 24 211 3.2 8.0 0.00 0.00 0.00 35 1008.2
20260503222005 24 311 6.4 14.5 0.00 0.00 0.00 34 1008.3
20260503221505 24 281 4.8 14.5 0.00 0.00 0.00 34 1008.4
20260503221005 23 333 3.2 8.0 0.00 0.00 0.00 34 1008.3
20260503220504 23 307 4.8 9.7 0.00 0.00 0.00 33 1008.4
20260503220005 24 288 4.8 9.7 0.00 0.00 0.00 35 1008.4
20260503215504 24 219 4.8 8.0 0.00 0.00 0.00 35 1008.4
20260503215005 24 229 4.8 8.0 0.00 0.00 0.00 35 1008.5
20260503214504 24 229 8.0 11.3 0.00 0.00 0.00 35 1008.6
20260503214006 23 320 8.0 11.3 0.00 0.00 0.00 36 1008.6
20260503213504 24 310 9.7 14.5 0.00 0.00 0.00 34 1008.5
20260503213006 23 302 3.2 11.3 0.00 0.00 0.00 35 1008.5
20260503212519 23 273 3.2 11.3 0.00 0.00 0.00 35 1008.4
20260503212005 24 305 4.8 8.0 0.00 0.00 0.00 34 1008.5
20260503211518 23 254 6.4 8.0 0.00 0.00 0.00 34 1008.6
20260503211006 23 164 3.2 8.0 0.00 0.00 0.00 37 1008.5
20260503210504 23 227 1.6 4.8 0.00 0.00 0.00 34 1008.6
20260503210005 23 213 9.7 14.5 0.00 0.00 0.00 34 1008.8
20260503205506 23 261 9.7 12.9 0.00 0.00 0.00 37 1008.8